TimeCST,TemperatureF,Dew PointF,Humidity,Sea Level PressureIn,VisibilityMPH,Wind Direction,Wind SpeedMPH,Gust SpeedMPH,PrecipitationIn,Events,Conditions,WindDirDegrees,DateUTC
12:15 AM,27.1,21.0,78,29.89,10.0,South,8.1,-,N/A,,Clear,180,2013-02-24 06:15:00
12:35 AM,27.5,21.0,77,29.89,10.0,South,9.2,-,N/A,,Clear,180,2013-02-24 06:35:00
12:55 AM,27.7,21.2,77,29.89,10.0,South,9.2,-,N/A,,Clear,170,2013-02-24 06:55:00
1:15 AM,27.3,20.8,77,29.90,10.0,South,9.2,-,N/A,,Clear,170,2013-02-24 07:15:00
1:35 AM,27.1,20.8,77,29.91,10.0,South,9.2,-,N/A,,Clear,180,2013-02-24 07:35:00
1:55 AM,26.6,20.3,77,29.92,7.0,South,8.1,-,N/A,,Clear,180,2013-02-24 07:55:00
2:15 AM,26.6,20.7,78,29.92,7.0,South,5.8,-,N/A,,Clear,190,2013-02-24 08:15:00
2:35 AM,26.6,20.8,79,29.91,7.0,South,6.9,-,N/A,,Clear,170,2013-02-24 08:35:00
2:55 AM,26.4,20.3,78,29.91,7.0,South,5.8,-,N/A,,Clear,170,2013-02-24 08:55:00
3:15 AM,25.5,20.1,80,29.90,7.0,SSE,5.8,-,N/A,,Clear,160,2013-02-24 09:15:00
3:35 AM,23.9,18.9,81,29.90,7.0,South,3.5,-,N/A,,Scattered Clouds,180,2013-02-24 09:35:00
3:55 AM,24.3,19.6,82,29.90,7.0,Calm,Calm,-,N/A,,Mostly Cloudy,0,2013-02-24 09:55:00
4:15 AM,26.2,20.8,80,29.91,7.0,South,3.5,-,N/A,,Overcast,180,2013-02-24 10:15:00
4:35 AM,26.6,21.0,79,29.90,10.0,South,6.9,-,N/A,,Overcast,180,2013-02-24 10:35:00
4:55 AM,27.3,21.2,78,29.90,10.0,South,4.6,-,N/A,,Overcast,180,2013-02-24 10:55:00
5:15 AM,28.2,21.6,76,29.91,10.0,South,4.6,-,N/A,,Overcast,190,2013-02-24 11:15:00
5:35 AM,28.6,21.7,76,29.91,10.0,South,3.5,-,N/A,,Overcast,190,2013-02-24 11:35:00
5:55 AM,28.4,21.2,74,29.92,10.0,South,3.5,-,N/A,,Overcast,180,2013-02-24 11:55:00
6:15 AM,29.1,22.1,75,29.92,10.0,South,3.5,-,N/A,,Overcast,170,2013-02-24 12:15:00
6:35 AM,29.1,21.9,74,29.92,10.0,SE,3.5,-,N/A,,Overcast,140,2013-02-24 12:35:00
6:55 AM,28.0,21.7,77,29.92,10.0,ESE,3.5,-,N/A,,Overcast,120,2013-02-24 12:55:00
7:15 AM,27.5,21.7,79,29.92,10.0,SE,3.5,-,N/A,,Overcast,140,2013-02-24 13:15:00
7:35 AM,27.9,21.2,76,29.93,10.0,SE,3.5,-,N/A,,Overcast,130,2013-02-24 13:35:00
7:55 AM,27.5,21.7,79,29.94,7.0,Calm,Calm,-,N/A,,Overcast,0,2013-02-24 13:55:00
8:15 AM,28.0,21.2,76,29.95,10.0,Calm,Calm,-,N/A,,Overcast,0,2013-02-24 14:15:00
8:35 AM,27.5,20.5,75,29.95,10.0,East,3.5,-,N/A,,Mostly Cloudy,100,2013-02-24 14:35:00
8:55 AM,27.0,20.1,75,29.95,10.0,ESE,3.5,-,N/A,,Mostly Cloudy,110,2013-02-24 14:55:00
9:15 AM,28.6,20.3,71,29.96,10.0,Calm,Calm,-,N/A,,Overcast,0,2013-02-24 15:15:00
9:35 AM,30.4,21.2,69,29.98,10.0,Calm,Calm,-,N/A,,Scattered Clouds,0,2013-02-24 15:35:00
9:55 AM,32.0,21.6,65,29.99,10.0,South,3.5,-,N/A,,Scattered Clouds,190,2013-02-24 15:55:00
10:15 AM,33.1,21.9,64,29.98,10.0,Calm,Calm,-,N/A,,Mostly Cloudy,0,2013-02-24 16:15:00
10:35 AM,35.1,21.9,59,29.98,10.0,SSE,4.6,-,N/A,,Scattered Clouds,160,2013-02-24 16:35:00
10:55 AM,36.5,21.9,56,29.98,10.0,SSE,5.8,-,N/A,,Clear,150,2013-02-24 16:55:00
11:15 AM,37.2,22.3,55,29.99,10.0,South,5.8,-,N/A,,Clear,170,2013-02-24 17:15:00
11:35 AM,38.5,22.5,53,29.99,10.0,SSE,8.1,-,N/A,,Clear,160,2013-02-24 17:35:00
11:55 AM,39.2,21.9,50,29.99,10.0,South,8.1,-,N/A,,Clear,180,2013-02-24 17:55:00
12:15 PM,40.3,21.9,48,29.98,10.0,SE,5.8,-,N/A,,Clear,140,2013-02-24 18:15:00
12:35 PM,41.0,22.5,48,29.96,10.0,ESE,4.6,-,N/A,,Clear,120,2013-02-24 18:35:00
12:55 PM,41.2,23.2,49,29.95,10.0,ESE,9.2,-,N/A,,Clear,110,2013-02-24 18:55:00
1:15 PM,41.5,23.4,49,29.94,10.0,ESE,4.6,-,N/A,,Clear,110,2013-02-24 19:15:00
1:35 PM,42.1,22.6,46,29.93,10.0,SE,9.2,-,N/A,,Clear,130,2013-02-24 19:35:00
1:55 PM,42.3,23.7,48,29.92,10.0,ESE,8.1,-,N/A,,Scattered Clouds,120,2013-02-24 19:55:00
2:15 PM,42.3,23.2,47,29.92,10.0,East,6.9,-,N/A,,Mostly Cloudy,100,2013-02-24 20:15:00
2:35 PM,41.9,23.4,48,29.91,10.0,East,5.8,-,N/A,,Overcast,90,2013-02-24 20:35:00
2:55 PM,41.5,23.4,49,29.91,10.0,East,5.8,-,N/A,,Overcast,90,2013-02-24 20:55:00
3:15 PM,41.2,24.1,51,29.91,10.0,East,6.9,-,N/A,,Overcast,80,2013-02-24 21:15:00
3:35 PM,41.0,25.0,53,29.91,10.0,East,6.9,-,N/A,,Overcast,100,2013-02-24 21:35:00
3:55 PM,40.6,24.6,53,29.91,10.0,ENE,8.1,-,N/A,,Overcast,70,2013-02-24 21:55:00
4:15 PM,40.5,24.8,54,29.91,10.0,ENE,9.2,-,N/A,,Overcast,70,2013-02-24 22:15:00
4:35 PM,39.7,25.5,57,29.92,10.0,ENE,8.1,-,N/A,,Overcast,70,2013-02-24 22:35:00
4:55 PM,39.2,26.2,60,29.92,10.0,ENE,9.2,-,N/A,,Overcast,60,2013-02-24 22:55:00
5:15 PM,38.3,27.7,66,29.93,10.0,NE,9.2,-,N/A,,Overcast,50,2013-02-24 23:15:00
5:35 PM,37.4,27.9,68,29.93,10.0,NE,6.9,-,N/A,,Overcast,50,2013-02-24 23:35:00
5:55 PM,37.0,27.5,68,29.95,10.0,ENE,8.1,-,N/A,,Overcast,60,2013-02-24 23:55:00
6:15 PM,36.5,27.0,68,29.96,10.0,ENE,6.9,-,N/A,,Overcast,60,2013-02-25 00:15:00
6:35 PM,35.8,27.1,71,29.96,10.0,NE,6.9,-,N/A,,Overcast,50,2013-02-25 00:35:00
6:55 PM,35.6,27.1,71,29.96,10.0,NE,6.9,-,N/A,,Overcast,50,2013-02-25 00:55:00
7:15 PM,35.6,27.0,71,29.97,10.0,NE,8.1,-,N/A,,Overcast,50,2013-02-25 01:15:00
7:35 PM,35.6,27.1,71,29.99,10.0,NE,5.8,-,N/A,,Overcast,40,2013-02-25 01:35:00
7:55 PM,35.4,27.3,72,30.00,10.0,NE,8.1,-,N/A,,Overcast,40,2013-02-25 01:55:00
8:15 PM,35.6,27.5,72,30.00,10.0,NE,5.8,-,N/A,,Overcast,50,2013-02-25 02:15:00
8:35 PM,35.2,27.5,73,30.01,10.0,NE,5.8,-,N/A,,Overcast,40,2013-02-25 02:35:00
8:55 PM,35.2,27.5,73,30.01,10.0,NE,6.9,-,N/A,,Overcast,40,2013-02-25 02:55:00
9:15 PM,35.1,27.9,75,30.01,10.0,NE,5.8,-,N/A,,Overcast,40,2013-02-25 03:15:00
9:35 PM,35.2,27.7,74,30.03,10.0,NNE,5.8,-,N/A,,Overcast,30,2013-02-25 03:35:00
9:55 PM,34.9,28.2,77,30.02,10.0,NNE,9.2,-,N/A,,Overcast,30,2013-02-25 03:55:00
10:15 PM,34.9,28.0,76,30.02,10.0,NNE,9.2,-,N/A,,Overcast,30,2013-02-25 04:15:00
10:35 PM,35.2,27.5,73,30.03,10.0,NNE,8.1,-,N/A,,Overcast,30,2013-02-25 04:35:00
10:55 PM,35.2,27.3,73,30.03,10.0,NNE,6.9,-,N/A,,Overcast,30,2013-02-25 04:55:00
11:15 PM,35.1,27.5,74,30.03,10.0,NNE,5.8,-,N/A,,Overcast,30,2013-02-25 05:15:00
11:35 PM,34.7,28.2,77,30.02,10.0,NNE,8.1,-,N/A,,Overcast,20,2013-02-25 05:35:00
11:55 PM,35.1,28.0,76,30.02,10.0,NNE,8.1,-,N/A,,Overcast,30,2013-02-25 05:55:00